Find Starlink 33746

NORAD ID: 63446 Int'l Des: 2025-069 Owner: SPXS Country: US Constellation: starlink operational
LEOCIRCULAR

リアルタイム位置

3D地球を読み込み中...

Starlink 33746について

説明を読み込み中...

次回通過

Passes for default location (London). Set your location on the main map for personalized predictions.

高度履歴

Loading altitude history...

軌道要素

1 63446U 25069P 26124.64767336 .00022749 00000-0 53045-3 0 9996
2 63446 53.1619 241.7390 0001111 76.8379 283.2751 15.42171932 61932
Epoch: May 4, 2026 • Age: 12 hours

現在のステータス

高度 440.6 km
速度 7.65 km/s
衛星直下点 27.02°N, 128.24°E
打ち上げ日 Apr 4, 2025
運用期間 1 years
タイプ internet

技術仕様

分類 Payload
質量 575.00 kg
乾燥質量 530.00 kg
総質量 575.00 kg
長さ 0.30 m
直径 4.10 m
スパン 29.00 m
形状 Box + pan
製造者 SPXS
バスタイプ Starlink V2MO
フェーズステータス In Orbit
所有者/国 SPXS/US

Most Searched